Regional Weather Roundup
Issued by NWS

Home | Current Version | Previous Version | Text Only | Print | Product List | Glossary On
Versions: 1 2 3 4 5 6 7 8 9 10 11 12 13 14 15 16 17 18 19 20 21 22 23 24 25 26 27 28 29 30 31 32 33 34 35 36 37 38 39 40 41 42 43 44 45 46 47 48 49 50
000
ASUS43 KDMX 200206
RWRIA

WEATHER ROUNDUP FOR IOWA
NATIONAL WEATHER SERVICE DES MOINES IA
800 PM CST SUN NOV 19 2017

NOTE: "FAIR" INDICATES FEW OR NO CLOUDS BELOW 12,000 FEET WITH NO
SIGNIFICANT WEATHER AND/OR OBSTRUCTIONS TO VISIBILITY.

* - THESE STATIONS ARE NOT NWS STATIONS...THUS NOT UNDER NWS
QUALITY CONTROL.  THEY ALSO DO NOT REPORT WEATHER SUCH
AS PRECIPITATION OR FOG.

IAZ001>003-012>014-020>022-031>034-043>046-200300-
   NORTHWEST IOWA

CITY           SKY/WX    TMP DP  RH WIND       PRES   REMARKS
CARROLL *      CLOUDY    36  28  75 S8        29.93F WCI  29
CHEROKEE *     MOCLDY    38  28  66 SE5       29.89F WCI  35
DENISON *      CLOUDY    39  27  60 S7        29.94F WCI  34
LE MARS *      CLOUDY    39  27  60 S6        29.88F WCI  35
ORANGE CITY *  CLOUDY    41  28  60 S3        29.87F
SHELDON *      CLOUDY    37  25  60 S7        29.85F WCI  32
SIOUX CITY     CLOUDY    37  26  64 SE5       29.89F WCI  33
SPENCER        CLOUDY    37  27  67 S8        29.89F WCI  31
STORM LAKE *   CLOUDY    39  27  60 S9        29.90F WCI  33
$$

IAZ055>058-069>071-079>083-090>094-200300-
   SOUTHWEST IOWA

CITY           SKY/WX    TMP DP  RH WIND       PRES   REMARKS
ATLANTIC *     CLEAR     36  28  75 SW8       29.96F WCI  29
AUDUBON *      CLOUDY    34  28  80 CALM      29.96S
CLARINDA *       N/A     36  27  69 S7        30.00F WCI  30
COUNCIL BLFS * CLOUDY    46  27  46 SW13G20   29.95S
CRESTON *      CLEAR     37  28  70 S14       30.00F WCI  29
HARLAN  *      CLOUDY    36  28  75 CALM      29.98S
LAMONI         CLEAR     37  26  64 S9        30.02F WCI  30
RED OAK *      CLOUDY    39  27  60 SW8       29.97F WCI  34
SHENANDOAH *   CLEAR     41  27  56 VRB5      29.99F
$$

IAZ047>049-059>061-072>074-084-200300-
   CENTRAL IOWA

CITY           SKY/WX    TMP DP  RH WIND       PRES   REMARKS
AMES           CLOUDY    34  28  79 SE5       29.97F WCI  30
ANKENY *       CLOUDY    36  27  69 S7        30.00F WCI  30
BOONE *        CLOUDY    37  28  70 S8        29.95F WCI  31
CHARITON *     CLEAR     37  27  65 S12       30.01F WCI  30
DES MOINES     CLOUDY    38  26  62 S9        29.99F WCI  31
GRINNELL*      CLOUDY    36  26  69 S10       30.02F WCI  28
KNOXVILLE *    CLOUDY    37  25  60 S10       30.00F WCI  30
MARSHALLTOWN   CLOUDY    37  27  67 S12       29.98F WCI  29
NEWTON *       CLOUDY    34  27  75 S8        30.01S WCI  27
PELLA *        CLOUDY    35  26  69 S6        30.03F WCI  30
PERRY *          N/A     35  27  73 S8        29.97S WCI  28
$$

IAZ004>006-015-016-023>025-035-036-200300-
   NORTH CENTRAL IOWA

CITY           SKY/WX    TMP DP  RH WIND       PRES   REMARKS
ALGONA *       CLOUDY    36  30  80 S10       29.91F WCI  28
CLARION *      CLOUDY    34  30  86 S12       29.93F WCI  25
ESTHERVILLE    CLOUDY    31  26  82 S9        29.88F WCI  23
FORT DODGE *   PTCLDY    41  29  62 S8        29.93F
MASON CITY     CLOUDY    36  26  67 SW12      29.94F WCI  28
FOREST CITY *    N/A     32  28  86 S5        29.92F WCI  27
WEBSTER CITY * CLOUDY    34  27  75 S9        29.93F WCI  26
IOWA FALLS *     N/A     36  28  74 S10       29.96F WCI  28
$$

IAZ007>011-017>019-026>030-037>042-050>054-066-200300-
   NORTHEAST IOWA

CITY           SKY/WX    TMP DP  RH WIND       PRES   REMARKS
CEDAR RAPIDS   CLOUDY    31  23  72 S10       30.02F WCI  22
CHARLES CITY * CLOUDY    32  28  86 S8        29.95F WCI  25
CLINTON *      CLEAR     26  21  81 SW9       30.06F WCI  17
DECORAH *      CLEAR     34  25  69 SW12      29.93F WCI  25
DUBUQUE        CLEAR     29  21  72 SW13      30.00F WCI  19
MONTICELLO *   CLOUDY    30  23  74 S6        30.02S WCI  24
OELWEIN *      CLOUDY    32  27  80 S12       29.99S WCI  23
WATERLOO       CLOUDY    34  24  67 S9        29.98F WCI  27
$$

IAZ064-065-067-068-078-200300-
   EAST CENTRAL IOWA

CITY           SKY/WX    TMP DP  RH WIND       PRES   REMARKS
DAVENPORT      CLEAR     33  21  61 S9        30.08F WCI  25
IOWA CITY      PTCLDY    34  23  64 SE3       30.07F
MT. PLEASANT * CLOUDY    33  25  70 S9        30.09S WCI  26
MUSCATINE *    CLOUDY    32  23  69 S8        30.08F WCI  25
QUAD CITIES    CLEAR     34  21  59 SW9       30.06F WCI  27
$$

IAZ062-063-075>077-085>089-095>099-200300-
   SOUTHEAST IOWA

CITY           SKY/WX    TMP DP  RH WIND       PRES   REMARKS
BURLINGTON     CLOUDY    33  26  75 SW9       30.10S WCI  25
FAIRFIELD *    CLOUDY    36  23  60 S9        30.06S WCI  29
FORT MADISON * CLOUDY    36  27  69 S7        30.11R WCI  30
KEOKUK *       CLOUDY    36  25  64 S8        30.10S WCI  29
OSKALOOSA *      N/A     33  26  76 S10       30.04F WCI  25
OTTUMWA        CLOUDY    36  25  64 S14       30.04F WCI  27
WASHINGTON *   CLOUDY    34  27  75 S10       30.07F WCI  26
$$

ABBREVIATIONS USED IN REMARKS
   TC - TEMPERATURES IN CELSIUS
  WCI - WIND CHILL INDEX
   HX - HEAT INDEX
  VSB - VISIBILITY
$$





USA.gov is the U.S. government's official web portal to all federal, state and local government web resources and services.